Wind_Speed
43 44 45 45 45 45 46 46 47 46 47 48 49 49 49 50 51 51 51 52 52 52 53 53 53 53 53 52 52 52 52 52 52 51 50 49 49 48
45 46 46 46 46 47 48 49 49 50 49 50 51 51 51 52 53 53 53 53 53 53 54 54 54 54 54 54 54 53 53 52 52 51 50 50 49 49
46 47 48 48 47 48 49 50 51 52 52 52 52 53 54 53 54 54 54 54 55 55 55 55 55 55 55 55 54 54 54 53 51 51 50 50 50 49
47 48 49 50 50 50 51 51 52 52 53 52 52 53 53 53 53 54 55 55 55 56 56 56 55 55 55 55 55 55 54 52 51 51 51 50 50 49
48 49 49 50 51 51 52 52 53 53 53 53 53 53 53 54 54 54 55 55 55 56 56 55 55 56 55 55 54 54 53 52 51 51 50 50 49 49
49 49 50 51 52 52 52 52 53 53 54 54 54 54 54 55 55 55 55 55 56 56 56 56 56 56 55 55 54 53 52 52 51 51 50 49 49 49
50 50 51 52 52 53 53 53 53 53 53 54 54 54 55 55 55 55 55 56 56 56 56 57 56 56 55 55 54 53 52 52 51 51 50 49 49 48
50 51 51 52 53 53 53 54 54 54 53 54 54 54 55 56 56 56 56 56 56 56 56 56 56 55 55 54 53 52 52 51 51 50 49 49 48 48
51 52 52 53 53 53 53 53 54 53 54 54 54 55 55 56 56 56 56 56 56 56 56 55 55 55 54 53 52 51 51 51 50 49 48 48 48 48
52 52 53 53 54 54 53 53 53 54 54 54 55 55 56 56 56 56 56 56 55 54 54 53 53 52 52 52 52 51 50 50 50 48 48 48 48 48
52 52 53 54 54 55 55 54 54 55 55 55 55 55 55 55 55 55 55 54 53 52 52 51 51 51 51 51 51 50 49 49 48 48 48 48 48 47
53 53 54 54 54 55 55 54 55 54 55 54 54 54 54 54 54 53 53 52 52 51 51 51 51 52 51 51 51 50 49 49 48 48 47 47 46 46
53 53 53 54 54 54 54 55 54 55 55 54 53 53 53 53 53 52 52 51 51 51 51 51 51 51 51 49 49 49 49 48 48 47 46 45 45 45
52 53 53 53 53 53 53 53 53 54 54 53 53 53 53 53 52 51 51 51 51 51 51 51 51 50 49 48 47 47 47 47 47 46 45 44 44 44
52 52 52 52 52 53 52 52 52 52 52 52 53 53 53 53 52 52 52 52 51 51 50 50 50 49 49 48 46 45 45 45 45 43 42 42 42 42
51 51 51 52 52 51 51 51 51 51 51 51 52 52 51 51 51 52 51 51 50 49 50 49 49 48 47 46 44 44 44 42 41 40 40 40 40 41
51 51 50 50 50 50 50 50 50 50 50 50 50 50 50 50 50 50 50 50 49 48 48 48 47 46 45 43 42 41 41 40 39 38 37 37 37 37
50 49 49 49 49 49 49 49 49 49 49 49 49 48 48 48 48 48 49 48 48 47 46 45 44 43 42 41 40 39 38 37 36 36 36 35 34 34
48 48 47 47 47 46 46 47 47 47 47 47 47 46 46 46 47 47 46 46 45 44 43 42 41 40 39 38 37 37 36 35 34 34 33 32 31 31
47 46 45 45 44 44 44 45 45 45 45 44 44 44 44 44 44 43 43 43 42 41 40 39 38 37 37 35 34 34 33 32 31 31 30 29 29 28
44 43 43 43 42 42 43 43 42 42 42 41 41 41 41 41 40 40 39 39 38 37 36 35 35 34 33 33 32 31 30 30 29 28 27 26 25 25
42 41 41 40 40 40 41 40 39 39 38 38 38 37 37 37 37 36 36 35 35 35 34 33 32 31 31 30 29 28 28 27 26 25 25 24 23 23
40 39 38 38 38 38 38 37 36 36 35 35 35 35 35 34 34 33 33 33 32 32 31 30 30 29 28 28 27 26 25 25 24 23 23 22 22 21
Wind_Direction
276 277 277 278 279 279 280 280 281 281 281 283 283 283 284 285 286 287 287 287 287 287 288 289 290 291 291 292 293 293 292 292 291 290 288 287 285 283
277 277 277 277 278 279 279 280 280 281 281 282 283 284 284 285 286 286 287 287 288 288 289 289 290 291 291 292 293 293 293 292 291 290 288 286 284 283
276 276 276 277 278 279 279 280 281 281 282 283 284 285 285 285 285 286 287 288 288 289 289 290 290 291 291 292 293 293 293 292 291 289 288 286 284 283
277 276 276 276 277 278 279 280 281 282 282 283 284 285 285 286 286 286 287 288 289 289 289 290 291 291 292 292 292 292 291 290 290 289 288 286 284 283
278 277 277 277 278 278 279 280 281 282 283 283 284 284 285 285 286 287 288 288 289 289 289 290 291 291 292 292 292 291 290 289 289 288 287 286 284 283
278 278 277 278 278 278 279 280 281 282 283 283 284 284 285 285 286 287 288 288 288 289 289 290 290 291 291 291 291 290 289 288 288 288 286 285 284 283
279 279 278 278 279 279 279 280 281 282 283 284 284 284 285 285 286 287 287 288 288 289 289 290 290 291 291 290 290 289 288 288 287 286 285 284 284 283
280 279 279 279 279 279 280 280 281 283 284 284 284 285 285 286 286 287 288 288 288 288 289 290 290 289 289 289 289 288 288 288 288 286 284 284 284 283
280 280 280 280 280 280 280 281 282 283 284 284 285 286 286 286 287 287 288 288 289 289 289 289 289 288 288 288 288 288 288 287 287 286 285 284 284 284
281 281 280 280 280 280 280 281 281 282 283 284 285 285 286 287 287 287 288 289 290 289 288 288 287 287 288 288 288 288 287 287 287 286 285 285 284 284
281 281 281 280 280 281 281 281 281 282 283 283 284 285 286 287 288 288 289 289 289 288 288 288 288 287 288 288 288 288 288 287 287 286 285 285 285 285
281 281 282 281 281 281 281 281 281 281 282 283 284 285 286 287 288 289 289 289 289 288 288 288 288 288 288 288 288 287 287 286 286 286 286 286 285 285
282 282 281 281 282 282 282 282 282 282 282 283 283 284 286 286 287 288 288 288 288 288 288 289 290 289 289 289 288 287 286 286 287 287 287 286 285 284
282 282 282 281 281 282 282 282 283 283 283 283 283 284 285 285 286 287 287 287 288 288 289 289 290 290 291 290 289 288 288 288 287 288 287 285 284 284
283 283 282 282 282 283 282 282 283 283 283 284 284 285 286 286 286 286 287 287 288 288 289 290 290 290 291 290 289 288 288 288 288 287 286 285 284 285
283 283 283 283 283 283 282 282 283 283 284 284 285 285 285 286 286 286 287 287 287 288 289 290 290 290 290 289 289 289 289 288 288 287 287 286 286 285
282 283 283 283 283 283 283 283 283 283 284 285 285 285 285 285 286 286 286 286 286 287 288 289 290 290 289 289 289 289 288 288 288 288 288 287 287 286
283 284 283 283 283 283 284 284 284 284 284 285 285 285 285 285 285 286 286 286 286 287 287 288 289 288 288 288 288 288 287 287 287 288 288 287 287 286
284 284 283 283 284 284 285 285 285 284 285 285 285 285 285 285 285 286 286 286 286 287 287 288 288 287 286 287 287 287 287 286 287 288 288 288 287 286
284 284 284 284 284 285 286 286 286 286 285 285 286 286 286 286 286 286 286 286 286 287 287 287 287 287 286 286 286 286 285 286 286 287 287 287 287 286
283 283 284 285 286 286 287 287 287 286 286 285 286 286 286 287 287 287 287 287 287 287 287 286 286 286 286 286 287 285 284 285 286 285 286 287 286 286
282 284 285 286 286 287 288 288 287 287 286 286 286 286 287 287 288 287 287 287 287 287 285 284 285 285 286 286 286 285 284 285 285 285 286 286 286 286
283 284 285 286 287 288 288 288 287 286 285 286 286 286 287 287 288 287 288 288 287 286 284 284 284 285 286 286 285 283 284 283 283 285 286 286 288 288
Height
5718 5718 5717 5716 5714 5713 5712 5711 5710 5708 5707 5704 5702 5700 5697 5695 5693 5691 5688 5686 5683 5680 5677 5674 5671 5668 5665 5661 5658 5654 5651 5647 5644 5641 5638 5636 5634 5632
5707 5706 5705 5704 5702 5701 5700 5698 5697 5696 5694 5692 5689 5687 5685 5682 5680 5678 5675 5672 5669 5666 5663 5660 5657 5654 5651 5647 5644 5640 5637 5633 5630 5627 5624 5622 5620 5619
5694 5693 5693 5691 5690 5688 5687 5685 5684 5682 5681 5679 5676 5674 5671 5669 5666 5664 5661 5658 5655 5652 5649 5646 5643 5640 5637 5633 5630 5626 5623 5619 5616 5613 5611 5608 5606 5605
5682 5680 5679 5678 5677 5675 5674 5672 5670 5668 5667 5666 5663 5660 5657 5655 5652 5650 5647 5644 5641 5638 5635 5632 5629 5625 5622 5619 5615 5612 5608 5605 5602 5599 5597 5594 5592 5590
5668 5667 5666 5664 5663 5662 5660 5658 5656 5654 5653 5651 5649 5646 5644 5641 5638 5636 5633 5630 5627 5624 5620 5617 5614 5610 5607 5604 5600 5597 5594 5591 5588 5585 5582 5580 5578 5576
5655 5653 5652 5651 5649 5648 5646 5644 5642 5640 5638 5637 5635 5632 5629 5626 5624 5621 5619 5615 5612 5609 5606 5602 5599 5595 5592 5589 5585 5582 5579 5576 5573 5570 5568 5566 5564 5562
5641 5640 5638 5637 5635 5633 5632 5630 5628 5626 5624 5622 5620 5618 5615 5612 5609 5606 5604 5601 5598 5594 5590 5587 5583 5580 5576 5573 5570 5566 5564 5561 5558 5556 5553 5551 5550 5548
5628 5626 5624 5622 5620 5619 5617 5615 5613 5611 5610 5608 5605 5603 5600 5596 5594 5591 5589 5586 5583 5580 5575 5572 5568 5564 5561 5557 5554 5551 5549 5546 5543 5541 5539 5537 5535 5533
5613 5612 5610 5608 5606 5604 5602 5600 5599 5596 5595 5593 5590 5588 5585 5582 5579 5576 5573 5570 5567 5563 5559 5556 5552 5548 5545 5542 5539 5537 5534 5531 5529 5527 5525 5523 5521 5519
5598 5596 5595 5592 5590 5589 5587 5586 5584 5582 5579 5577 5576 5573 5569 5566 5563 5560 5556 5554 5551 5547 5543 5541 5537 5533 5530 5527 5524 5521 5519 5517 5515 5512 5511 5508 5507 5505
5584 5581 5579 5577 5575 5573 5572 5571 5569 5567 5564 5562 5559 5557 5553 5550 5546 5544 5541 5537 5535 5532 5528 5526 5523 5520 5517 5513 5510 5507 5505 5503 5501 5499 5496 5494 5493 5491
5568 5566 5564 5561 5559 5557 5556 5555 5553 5551 5549 5546 5544 5541 5538 5534 5531 5528 5525 5522 5520 5518 5515 5511 5509 5506 5504 5501 5496 5493 5490 5488 5486 5484 5482 5480 5479 5477
5553 5551 5548 5546 5544 5542 5540 5539 5537 5535 5533 5531 5528 5525 5523 5519 5516 5513 5510 5507 5505 5503 5500 5497 5494 5491 5489 5488 5484 5480 5477 5474 5472 5470 5468 5466 5464 5463
5538 5535 5533 5531 5529 5527 5525 5523 5521 5519 5517 5515 5513 5510 5507 5504 5501 5498 5496 5493 5490 5488 5485 5482 5480 5477 5474 5473 5471 5468 5464 5461 5459 5457 5455 5453 5451 5449
5522 5520 5518 5516 5514 5512 5510 5507 5505 5503 5501 5499 5497 5495 5492 5489 5486 5484 5481 5479 5476 5473 5470 5468 5465 5463 5460 5458 5457 5454 5452 5449 5446 5444 5442 5440 5438 5437
5508 5506 5503 5501 5499 5496 5494 5492 5490 5488 5485 5484 5481 5479 5477 5475 5472 5470 5467 5465 5462 5460 5457 5454 5451 5449 5447 5445 5443 5441 5438 5436 5434 5432 5430 5428 5426 5424
5493 5491 5489 5487 5484 5482 5479 5477 5475 5473 5471 5468 5466 5464 5462 5460 5458 5455 5453 5450 5449 5446 5444 5440 5437 5435 5433 5432 5430 5428 5425 5423 5422 5420 5419 5417 5414 5412
5478 5477 5475 5472 5470 5467 5465 5463 5460 5458 5456 5454 5452 5450 5448 5445 5443 5441 5438 5436 5434 5433 5430 5427 5425 5423 5421 5419 5418 5415 5413 5411 5410 5409 5407 5406 5404 5401
5464 5462 5460 5457 5455 5453 5450 5448 5446 5444 5442 5440 5438 5436 5433 5431 5429 5427 5425 5423 5421 5419 5417 5415 5412 5411 5410 5408 5406 5404 5402 5401 5399 5398 5396 5395 5393 5391
5450 5448 5446 5443 5441 5439 5437 5435 5432 5430 5428 5426 5424 5422 5420 5418 5416 5414 5412 5410 5408 5406 5405 5403 5401 5399 5398 5397 5396 5394 5392 5391 5390 5388 5387 5385 5383 5382
5437 5435 5432 5430 5428 5426 5424 5422 5419 5417 5415 5413 5411 5410 5407 5405 5403 5401 5400 5398 5396 5395 5393 5392 5390 5388 5387 5387 5386 5384 5382 5381 5380 5379 5378 5376 5375 5374
5424 5422 5420 5418 5416 5414 5411 5409 5407 5405 5403 5401 5400 5398 5396 5394 5392 5390 5389 5387 5385 5384 5383 5382 5380 5379 5378 5377 5376 5375 5374 5372 5371 5370 5369 5368 5367 5367
5412 5410 5408 5406 5404 5402 5400 5397 5396 5394 5392 5390 5389 5387 5386 5384 5382 5380 5379 5377 5375 5374 5373 5372 5371 5370 5369 5368 5367 5366 5365 5365 5364 5363 5362 5361 5360 5359